Tracking 25686 objects as of 25-May-2022
HD Live streaming from Space Station
objects crossing your sky now

ATLAS 5 CENTAUR R/B

Track ATLAS 5 CENTAUR R/B now!


NORAD ID: 39167
Int'l Code: 2013-023B
Perigee: 20,577.9 km
Apogee: 21,419.4 km
Inclination: 56.4 °
Period: 751.0 minutes
Semi major axis: 27369 km
RCS: 2.5119 m2 (large)
Launch date: May 15, 2013
Source: United States (US)
Launch site: AIR FORCE EASTERN TEST RANGE (AFETR)

Note: This is a ROCKET BODY
aabbcc
Your satellite tracking list
Your tracking list is empty




NASA's NSSDC Master Catalog

Two Line Element Set (TLE):
1 39167U 13023B   22143.02308175 -.00000077  00000-0  00000-0 0  9998
2 39167  56.3813 341.3021 0153734 350.4789   9.2558  1.91734354 63080
Source of the keplerian elements: AFSPC